Regional Weather Roundup
Issued by NWS

Home | Current Version | Previous Version | Text Only | Print | Product List | Glossary On
Versions: 1 2 3 4 5 6 7 8 9 10 11 12 13 14 15 16 17 18 19 20 21 22 23 24 25 26 27 28 29 30 31 32 33 34 35 36 37 38 39 40 41 42 43 44 45 46 47 48 49 50
000
ASUS44 KEWX 301710
RWRTX
SOUTH TEXAS REGIONAL WEATHER ROUNDUP
NATIONAL WEATHER SERVICE AUSTIN/SAN ANTONIO TX
1100 AM CST FRI JAN 30 2015

NOTE: "FAIR" INDICATED FEW OR NO CLOUDS BELOW 12,000 FEET WITH NO
SIGNIFICANT WEATHER AND/OR OBSTRUCTIONS TO VISIBILITY.

* - THESE STATIONS ARE NOT NWS OR FAA STATIONS...AND ARE NOT SUBJECT
    TO NWS AND FAA QUALITY CONTROL.

TXZ171-172-183>190-301800-
TEXAS HILL COUNTRY AND EDWARDS PLATEAU

CITY           SKY/WX    TMP DP  RH WIND       PRES   REMARKS
JUNCTION       PTSUNNY   49  33  54 E12       30.42S WCI  44
*LLANO         CLOUDY    48  34  57 NE9       30.49S WCI  44
BURNET           N/A     47  32  56 E9        30.46S WCI  43
*HORSESHOE BAY CLOUDY    49  32  52 NE5       30.45F WCI  47
*KERRVILLE     CLOUDY    51  34  51 NE6       30.41F
*FREDERICKSBRG CLOUDY    47  33  57 E9        30.43S WCI  43
*ROCKSPRINGS   PTSUNNY   52  34  50 NE7       30.40F
*BOERNE STAGE  CLOUDY    50  32  50 NE9       30.42F WCI  46
*CASTROVILLE   MOSUNNY   57  34  43 E10       30.42F
HONDO          SUNNY     58  36  43 E13       30.42S
*UVALDE        MOSUNNY   58  36  43 E10       30.40F
DEL RIO        CLOUDY    56  35  45 CALM      30.39F
LAUGHLIN AFB   CLOUDY    56  36  46 E5        30.39F
CARRIZO SPRGS  MOSUNNY   59  37  44 E9G16     30.37F
$$

TXZ173-191>194-202-209-217>225-228-301800-
CENTRAL AND SOUTH CENTRAL TEXAS

CITY           SKY/WX    TMP DP  RH WIND       PRES   REMARKS
GEORGETOWN     CLOUDY    48  34  57 NE12      30.46S WCI  43
AUSTIN/BERGSTM CLOUDY    50  36  58 NE14G21   30.44F WCI  45
AUSTIN/MABRY   CLOUDY    50  35  56 VRB6      30.45F WCI  48
*AUSTIN/EXEC   CLOUDY    48  36  61 NE14G20   30.45F WCI  43
*LAGO VISTA    LGT RAIN  49  35  58 NE10      30.44S WCI  45
SAN MARCOS     SUNNY     52  36  54 NE20      30.44F
NEW BRAUNFELS  MOSUNNY   54  36  50 NE16      30.43R
RANDOLPH AFB   CLOUDY    54  35  47 NE10      30.42S
PT SAN ANTONIO MOSUNNY   56  36  47 NE15      30.39F
SAN ANTONIO    CLOUDY    55  35  47 NE12      30.42S
STINSON FIELD  CLOUDY    55  35  47 NE12      30.40F
*PLEASANTON    MOSUNNY   58  36  45 NE13G18   30.42S
*LA GRANGE     PTSUNNY   52  39  61 N9        30.42F
*GIDDINGS      PTSUNNY   51  36  56 NE10      30.48S
*GONZALES      NOT AVBL
$$

TXZ163>164-176>182-195>201-210>213-226-227-235-301800-
SOUTHEAST TEXAS

CITY           SKY/WX    TMP DP  RH WIND       PRES   REMARKS
COLLEGE STN    PTSUNNY   50  35  56 NE9       30.46S WCI  46
*BRYAN         PTSUNNY   50  35  56 NE7       30.47S WCI  47
*CALDWELL      PTSUNNY   50  34  53 NE9       30.48F WCI  46
*CROCKETT      PTSUNNY   52  36  54 NE9       30.50S
*BRENHAM       PTSUNNY   53  38  58 NE8       30.46S
HUNTSVILLE     PTSUNNY   50  35  56 NE8       30.45S WCI  47
CONROE         PTSUNNY   49  36  61 E9        30.45S WCI  45
HOUSTON BUSH   CLOUDY    56  39  53 NE9       30.43F
HOUSTON HOBBY  PTSUNNY   56  41  57 NE14G20   30.41F
*HOUSTON SW AP PTSUNNY   54  41  62 NE12      30.42S
PEARLAND       PTSUNNY   57  40  52 NE12G23   30.42F
HOUSTON HOOKS  PTSUNNY   53  37  54 NE8       30.43F
ELLINGTON FLD  PTSUNNY   57  41  54 NE9       30.42S
SUGAR LAND     PTSUNNY   57  41  55 NE12      30.41S
*HOUSTON EXEC  PTSUNNY   54  37  54 NE13      30.44S
*CLEVELAND MUN PTSUNNY   52  37  58 NE8       30.46S
*WHARTON       MOSUNNY   57  43  59 NE10      30.41F
*COLUMBUS      FAIR      53  39  59 NE10      30.42F
$$

TXZ214>216-236>238-301800-
THE UPPER TEXAS COAST

CITY           SKY/WX    TMP DP  RH WIND       PRES   REMARKS
*ORANGE        MOSUNNY   52  37  56 N9        30.44S
PORT ARTHUR    MOSUNNY   55  37  50 N13       30.42R
GALVESTON      PTSUNNY   57  46  66 NE14      30.41S
ANGLETON       PTSUNNY   56  44  64 E13       30.39F
*BAY CITY      MOSUNNY   59  47  62 E12       30.39F
PALACIOS       MOSUNNY   60  44  55 NE14      30.39S
$$

TXZ229>234-239>247-301800-
TEXAS COASTAL BEND AND RIO GRANDE PLAINS

CITY           SKY/WX    TMP DP  RH WIND       PRES   REMARKS
VICTORIA       PTSUNNY   58  42  55 NE15      30.41S
*BEEVILLE      MOSUNNY   60  41  50 NE12G17   30.39F
ROCKPORT       SUNNY     63  44  50 NE16      30.38S
*PORT ARANSAS  MOSUNNY   60  47  63 NE18      30.38S
*PORT LAVACA   CLOUDY    56  44  63 NE13      30.41R
*INGLESIDE     SUNNY     63  43  49 NE16      30.38S
CORPUS CHRISTI PTSUNNY   62  44  51 NE17      30.37F
CORPUS NAS     PTSUNNY   61  48  62 NE15      30.37F
*ROBSTOWN      SUNNY     63  44  50 NE14G21   30.38F
ALICE          SUNNY     64  42  44 E14       30.38S
KINGSVILLE NAS PTSUNNY   64  47  53 NE15      30.38F
COTULLA        NOT AVBL
*FAITH RANCH   MOSUNNY   59  37  44 E13G18    30.37F
LAREDO         MOSUNNY   64  42  44 E15       30.36F
$$

TXZ248>255-301800-
DEEP SOUTH TEXAS

CITY           SKY/WX    TMP DP  RH WIND       PRES   REMARKS
BROWNSVILLE    CLOUDY    68  62  81 N14       30.32S
PORT ISABEL    PTSUNNY   67  61  81 N13       30.32S
*SOUTH PADRE   MOSUNNY   64  63  94 NE10      30.32F
HARLINGEN      MOSUNNY   69  61  75 NE18      30.32F
*HEBBRONVILLE  MOSUNNY   62  43  50 E12       30.36F
MCALLEN        CLOUDY    65  60  84 NE13      30.33S
*WESLACO       PTSUNNY   67  57  71 NE12      30.33S
FALFURRIAS     SUNNY     64  44  48 NE14      30.36S
EDINBURG       CLOUDY    66  56  68 NE10      30.34S
*ZAPATA        MOSUNNY   67  49  50 E15       30.32F
$$

TXZ213>215-236>238-242>244-246-247-251-254-255-301800-
CMAN STATIONS

STATION/POSITION TIME  TEMP    WIND        PRES    WAVE
                       AIR SEA DIR/SP/G            HT/PER
                 (UTC) (F)     (DEG/KT/KT) (MB)    (FT/S)
SABINE PASS      1600   49 56   50/ 15/ 20 1029.9
SEA RIM ST PARK  1600   49      50/ 14/ 19 1030.3
NORTH JETTY/GLS  1600   53 58   80/ 17/ 19   N/A
EAGLE POINT      1600   51 56   60/ 14/ 17 1030.1
MORGANS POINT    1600   51      50/ 12/ 15 1029.9
PORT O`CONNOR    1600           20/ 13/ 15   N/A
PORT ARANSAS     1600   57 61   20/ 19/ 22 1028.7
MALAQUITE BEACH  1600   57 62   10/ 19/ 21 1027.9
BAFFIN BAY       1600   59      30/ 18/ 23 1028.3
PORT ISABEL      1600   65 61  360/ 10/ 12 1026.6
$$

GMZ080-GMZ150>470-301800-
OFFSHORE BUOY REPORTS

STATION/POSITION TIME  TEMP    WIND        PRES    WAVE
                       AIR SEA DIR/SP/G            HT/PER
                 (UTC) (F)     (DEG/KT/KT) (MB)    (FT/S)
20 E GALVESTON   1700   51 57   50/ 17/ 19 1029.0    4/ 5
90 E PT ARANSAS  1700   62 67   50/ 19/ 21 1027.7    5/ 6
35 NE PT MANSFLD 1700   66 67   30/ 17/ 21 1026.6    4/ 5
200 E PT ISABEL  1700   71 72   70/ 10/ 12 1025.7    1/ 5
$$



USA.gov is the U.S. government's official web portal to all federal, state and local government web resources and services.